University, MS

6:59 AM CST on February 06, 2016 (GMT -0600)
University-Oxford

Weather History for KUOX - June, 2012

Change the Weather History Date:

Saturday, June 23, 2012

  Actual Average Record
Temperature  
Mean Temperature 80 °F -  
Max Temperature 93 °F 88 °F 102 °F (1930)
Min Temperature 66 °F 65 °F 48 °F (1972)
Cooling Degree Days 14    
Growing Degree Days 30 (Base 50)    
Moisture  
Dew Point 62 °F    
Average Humidity 58    
Maximum Humidity 88    
Minimum Humidity 30    
Precipitation  
Precipitation 0.00 in - - ()
Sea Level Pressure  
Sea Level Pressure 29.95 in    
Wind  
Wind Speed 2 mph (NE)    
Max Wind Speed 9 mph    
Max Gust Speed -    
Visibility 10 miles    
Events      
Averages and records for this station are not official NWS values.
T = Trace of Precipitation, MM = Missing Value Source: NWS Daily Summary

Daily Weather History Graph

Daily Weather History Graph

Search for Another Location

Airport or City:

Trip Planner

Search our weather history database for the weather conditions in past years. The results will help you decide how hot, cold, wet, or windy it might be!

Date:

Astronomy

Jun. 23, 2012 Rise Set
Actual Time 5:46 AM CDT 8:14 PM CDT
Civil Twilight 5:17 AM CDT 8:43 PM CDT
Nautical Twilight 4:41 AM CDT 9:19 PM CDT
Astronomical Twilight 4:01 AM CDT 9:59 PM CDT
Moon 9:38 AM CDT (6/23) 10:54 PM CDT (6/23)
Length of Visible Light 15h 26m
Length of Day
14h 27m
Waxing Crescent, 16% of the Moon is Illuminated
Jun 23
Waxing Crescent
Jun 26
First Quarter
Jul 3
Full
Jul 10
Last Quarter
Jul 18
New

Hourly Weather History & Observations

Time (CDT) Temp. Heat Index Dew Point Humidity Pressure Visibility Wind Dir Wind Speed Gust Speed Precip Events Conditions
12:15 AM 71.6 °F - 66.2 °F 83% 29.95 in 10.0 mi Calm Calm - N/A   Clear
12:35 AM 71.6 °F - 66.2 °F 83% 29.94 in 10.0 mi NE 3.5 mph - N/A   Clear
12:55 AM 71.6 °F - 66.2 °F 83% 29.94 in 10.0 mi Calm Calm - N/A   Clear
1:15 AM 73.4 °F - 64.4 °F 73% 29.94 in 10.0 mi NE 4.6 mph - N/A   Clear
1:35 AM 73.4 °F - 64.4 °F 73% 29.94 in 10.0 mi ENE 4.6 mph - N/A   Clear
1:55 AM 73.4 °F - 62.6 °F 69% 29.94 in 10.0 mi Calm Calm - N/A   Clear
2:15 AM 71.6 °F - 64.4 °F 78% 29.94 in 10.0 mi Calm Calm - N/A   Clear
2:35 AM 71.6 °F - 62.6 °F 73% 29.93 in 10.0 mi ENE 3.5 mph - N/A   Clear
2:55 AM 69.8 °F - 64.4 °F 83% 29.93 in 10.0 mi Calm Calm - N/A   Clear
3:15 AM 69.8 °F - 62.6 °F 78% 29.93 in 10.0 mi Calm Calm - N/A   Clear
3:35 AM 69.8 °F - 64.4 °F 83% 29.92 in 10.0 mi Calm Calm - N/A   Clear
3:55 AM 68.0 °F - 62.6 °F 83% 29.92 in 10.0 mi Calm Calm - N/A   Clear
4:15 AM 68.0 °F - 62.6 °F 83% 29.92 in 10.0 mi Calm Calm - N/A   Clear
4:35 AM 68.0 °F - 62.6 °F 83% 29.92 in 10.0 mi Calm Calm - N/A   Clear
4:55 AM 68.0 °F - 59.0 °F 73% 29.92 in 10.0 mi Calm Calm - N/A   Clear
5:15 AM 66.2 °F - 62.6 °F 88% 29.93 in 10.0 mi Calm Calm - N/A   Clear
5:35 AM 66.2 °F - 60.8 °F 83% 29.93 in 10.0 mi Calm Calm - N/A   Clear
5:55 AM 68.0 °F - 62.6 °F 83% 29.94 in 10.0 mi Calm Calm - N/A   Clear
6:15 AM 66.2 °F - 62.6 °F 88% 29.95 in 10.0 mi Calm Calm - N/A   Clear
6:35 AM 68.0 °F - 60.8 °F 78% 29.95 in 10.0 mi Calm Calm - N/A   Clear
6:55 AM 68.0 °F - 62.6 °F 83% 29.96 in 10.0 mi Calm Calm - N/A   Clear
7:15 AM 71.6 °F - 62.6 °F 73% 29.96 in 10.0 mi Calm Calm - N/A   Clear
7:35 AM 73.4 °F - 62.6 °F 69% 29.96 in 10.0 mi Calm Calm - N/A   Clear
7:55 AM 77.0 °F - 62.6 °F 61% 29.97 in 10.0 mi East 5.8 mph - N/A   Clear
8:15 AM 78.8 °F - 62.6 °F 57% 29.97 in 10.0 mi NE 3.5 mph - N/A   Clear
8:35 AM 80.6 °F 81.8 °F 62.6 °F 54% 29.98 in 10.0 mi NE 4.6 mph - N/A   Clear
8:55 AM 80.6 °F 81.5 °F 60.8 °F 51% 29.98 in 10.0 mi SE 3.5 mph - N/A   Clear
9:15 AM 82.4 °F 82.9 °F 60.8 °F 48% 29.98 in 10.0 mi East 3.5 mph - N/A   Clear
9:35 AM 84.2 °F 84.4 °F 60.8 °F 45% 29.99 in 10.0 mi East 5.8 mph - N/A   Clear
9:55 AM 84.2 °F 85.0 °F 62.6 °F 48% 29.98 in 10.0 mi ENE 4.6 mph - N/A   Clear
10:15 AM 84.2 °F 85.0 °F 62.6 °F 48% 29.98 in 10.0 mi ENE 6.9 mph - N/A   Clear
10:35 AM 86.0 °F 87.3 °F 64.4 °F 48% 29.98 in 10.0 mi NE 5.8 mph - N/A   Clear
10:55 AM 86.0 °F 87.3 °F 64.4 °F 48% 29.98 in 10.0 mi NNE 6.9 mph - N/A   Clear
11:15 AM 86.0 °F 86.6 °F 62.6 °F 45% 29.98 in 10.0 mi Calm Calm - N/A   Clear
11:35 AM 87.8 °F 87.6 °F 60.8 °F 40% 29.97 in 10.0 mi ESE 3.5 mph - N/A   Clear
11:55 AM 89.6 °F 89.5 °F 60.8 °F 38% 29.97 in 10.0 mi SE 3.5 mph - N/A   Clear
12:15 PM 89.6 °F 88.9 °F 59.0 °F 36% 29.97 in 10.0 mi ENE 8.1 mph - N/A   Partly Cloudy
12:35 PM 89.6 °F 89.5 °F 60.8 °F 38% 29.97 in 10.0 mi North 4.6 mph - N/A   Clear
12:55 PM 89.6 °F 88.9 °F 59.0 °F 36% 29.97 in 10.0 mi East 4.6 mph - N/A   Partly Cloudy
1:15 PM 91.4 °F 91.4 °F 60.8 °F 36% 29.96 in 10.0 mi NNE 8.1 mph - N/A   Clear
1:35 PM 91.4 °F 90.7 °F 59.0 °F 34% 29.96 in 10.0 mi North 6.9 mph - N/A   Clear
1:55 PM 91.4 °F 90.7 °F 59.0 °F 34% 29.95 in 10.0 mi North 5.8 mph - N/A   Clear
2:15 PM 91.4 °F 90.7 °F 59.0 °F 34% 29.95 in 10.0 mi North 5.8 mph - N/A   Clear
2:35 PM 91.4 °F 90.7 °F 59.0 °F 34% 29.95 in 10.0 mi NNE 8.1 mph - N/A   Clear
2:55 PM 91.4 °F 90.7 °F 59.0 °F 34% 29.94 in 10.0 mi NNW 5.8 mph - N/A   Clear
3:15 PM 93.2 °F 92.6 °F 59.0 °F 32% 29.94 in 10.0 mi NNE 5.8 mph - N/A   Scattered Clouds
3:35 PM 93.2 °F 92.6 °F 59.0 °F 32% 29.94 in 10.0 mi East 9.2 mph - N/A   Scattered Clouds
3:55 PM 91.4 °F 90.7 °F 59.0 °F 34% 29.93 in 10.0 mi Calm Calm - N/A   Partly Cloudy
4:15 PM 93.2 °F 91.9 °F 57.2 °F 30% 29.93 in 10.0 mi ENE 4.6 mph - N/A   Clear
4:35 PM 93.2 °F 92.6 °F 59.0 °F 32% 29.93 in 10.0 mi ENE 6.9 mph - N/A   Clear
4:55 PM 93.2 °F 91.9 °F 57.2 °F 30% 29.93 in 10.0 mi NNE 6.9 mph - N/A   Clear
5:15 PM 93.2 °F 92.6 °F 59.0 °F 32% 29.93 in 10.0 mi NE 6.9 mph - N/A   Clear
5:35 PM 91.4 °F 89.9 °F 57.2 °F 31% 29.93 in 10.0 mi NNE 5.8 mph - N/A   Clear
5:55 PM 91.4 °F 90.7 °F 59.0 °F 34% 29.93 in 10.0 mi NE 8.1 mph - N/A   Clear
6:15 PM 91.4 °F 89.9 °F 57.2 °F 31% 29.92 in 10.0 mi NNE 6.9 mph - N/A   Clear
6:35 PM 91.4 °F 90.7 °F 59.0 °F 34% 29.92 in 10.0 mi ENE 5.8 mph - N/A   Clear
6:55 PM 89.6 °F 88.9 °F 59.0 °F 36% 29.92 in 10.0 mi ENE 4.6 mph - N/A   Clear
7:15 PM 89.6 °F 88.9 °F 59.0 °F 36% 29.92 in 10.0 mi East 5.8 mph - N/A   Clear
7:35 PM 86.0 °F 85.4 °F 59.0 °F 40% 29.92 in 10.0 mi ENE 4.6 mph - N/A   Clear
7:55 PM 84.2 °F 85.6 °F 64.4 °F 51% 29.92 in 10.0 mi NE 4.6 mph - N/A   Clear
8:15 PM 80.6 °F 82.7 °F 66.2 °F 61% 29.93 in 10.0 mi Calm Calm - N/A   Clear
8:35 PM 78.8 °F - 66.2 °F 65% 29.93 in 10.0 mi Calm Calm - N/A   Clear
8:55 PM 77.0 °F - 66.2 °F 69% 29.94 in 10.0 mi Calm Calm - N/A   Clear
9:15 PM 75.2 °F - 66.2 °F 73% 29.95 in 10.0 mi Calm Calm - N/A   Clear
9:35 PM 75.2 °F - 66.2 °F 73% 29.95 in 10.0 mi Calm Calm - N/A   Clear
9:55 PM 73.4 °F - 66.2 °F 78% 29.95 in 10.0 mi Calm Calm - N/A   Clear
10:15 PM 73.4 °F - 66.2 °F 78% 29.96 in 10.0 mi Calm Calm - N/A   Clear
10:35 PM 73.4 °F - 64.4 °F 73% 29.97 in 10.0 mi Calm Calm - N/A   Clear
10:55 PM 73.4 °F - 64.4 °F 73% 29.97 in 10.0 mi Calm Calm - N/A   Clear
11:15 PM 73.4 °F - 64.4 °F 73% 29.97 in 10.0 mi Calm Calm - N/A   Clear
11:35 PM 73.4 °F - 64.4 °F 73% 29.96 in 10.0 mi Calm Calm - N/A   Clear
11:55 PM 71.6 °F - 62.6 °F 73% 29.96 in 10.0 mi Calm Calm - N/A   Clear